CAPE
1558 1416 1272 883 619 236 315 7 42 23 0 0 0 0 0 2 5 0 0 173 206 194 93 20 7 7 4 2 2 3 4 5 5 4 2 1 1 0 1 1 0 1 0
1373 1313 1069 738 672 552 458 248 91 0 0 0 0 0 0 0 0 0 0 0 1 4 4 5 4 3 2 2 2 1 1 1 1 1 2 1 0 1 0 0 1 2 2
1483 1224 885 829 630 409 345 161 0 0 0 0 0 0 0 0 0 0 0 0 0 0 0 0 1 2 2 1 1 0 0 1 1 1 0 0 0 2 2 1 3 5 3
1587 1084 741 704 519 118 6 0 0 0 0 0 0 0 0 0 1 0 0 0 0 0 0 0 1 1 1 2 2 2 3 3 4 1 2 4 5 3 1 0 0 2 4
1449 1080 692 451 114 0 0 0 0 0 0 0 0 0 0 0 10 1 0 0 0 0 0 0 0 0 0 1 3 4 7 4 5 2 3 3 1 1 1 2 2 2 0
1320 925 464 138 1 0 0 0 0 0 0 0 0 0 0 0 0 3 2 1 0 0 0 0 0 0 0 2 8 7 8 3 4 3 4 2 2 1 2 2 1 1 1
733 434 66 7 0 0 0 0 0 0 0 0 0 0 0 0 1 4 17 2 1 0 0 0 0 0 0 0 0 4 3 7 5 3 2 2 4 2 4 3 4 2 3
24 2 1 0 0 0 0 0 0 0 0 0 0 0 2 0 3 1 1 0 0 0 0 0 0 0 0 0 0 0 2 3 3 3 2 3 4 4 3 3 4 4 0
0 0 0 0 0 0 0 0 0 0 0 0 0 0 1 0 0 0 0 0 0 0 0 0 0 0 0 0 0 0 0 0 3 6 4 3 2 1 1 1 4 3 6
0 0 0 0 0 0 0 0 0 0 9 0 0 0 0 0 0 0 0 0 0 0 0 0 0 0 0 0 0 0 0 0 0 2 4 5 6 1 3 2 4 2 2
1 0 0 0 0 0 0 0 0 0 0 0 0 0 0 0 0 0 1 0 0 0 0 0 0 0 0 0 0 0 0 0 0 1 3 3 1 8 3 11 6 3 1
0 0 0 0 0 0 0 0 0 0 0 0 0 0 0 0 0 0 0 0 0 0 0 0 0 0 0 0 0 0 0 0 0 1 2 3 1 2 6 6 5 3 2
0 0 0 0 0 0 0 0 0 1 2 1 0 0 0 0 0 0 2 1 1 0 0 0 0 0 0 0 0 0 0 0 0 2 2 2 3 0 5 5 3 2 2
0 0 0 2 3 3 3 0 0 0 0 0 0 0 0 0 0 0 0 2 3 11 0 0 0 1 0 0 0 0 0 0 0 0 0 2 1 0 1 1 9 8 7
4 3 2 2 0 0 0 0 0 0 0 0 0 0 0 0 0 0 0 0 0 1 0 0 0 0 0 0 0 0 0 0 0 0 0 1 0 3 7 1 7 8 10
3 0 0 0 0 0 0 0 0 0 0 0 0 0 0 0 0 0 0 0 0 3 4 5 0 0 0 0 0 0 0 0 0 0 0 1 1 1 3 1 1 2 1
0 1 1 0 0 0 0 0 0 0 0 0 0 0 0 0 0 0 0 0 0 0 0 2 0 1 0 0 0 0 0 0 0 0 0 0 0 2 1 1 1 1 4
0 0 0 0 0 0 0 0 0 0 0 0 0 0 0 0 0 0 0 0 0 0 1 2 0 0 0 0 0 0 0 0 0 0 0 0 0 9 1 0 0 0 1
0 1 0 0 0 0 0 0 0 0 0 0 0 0 0 0 0 0 0 0 0 0 0 0 0 0 0 0 0 0 0 0 0 1 0 0 3 3 0 0 0 0 0
0 0 0 0 0 0 0 0 0 0 0 0 0 0 0 0 0 0 0 0 0 0 0 0 0 0 0 0 0 0 1 0 0 0 0 0 0 3 0 0 0 0 0
0 0 0 0 0 0 0 0 0 0 0 0 0 0 0 0 0 0 0 0 0 0 0 0 0 0 0 0 0 0 0 0 0 0 0 0 0 1 0 1 0 0 0
0 0 0 0 0 0 0 0 0 0 0 0 0 0 0 0 0 0 0 0 0 0 0 0 0 0 0 0 0 0 0 0 0 0 0 1 0 1 0 0 0 0 0
0 0 0 0 0 0 0 0 0 0 0 0 0 0 0 0 0 0 0 0 0 0 0 0 0 0 0 0 0 0 0 0 0 0 0 0 0 0 0 0 1 1 3
0 0 0 0 0 0 0 0 0 0 0 0 0 0 0 0 0 0 0 0 0 0 0 0 0 0 0 0 0 0 0 0 0 0 0 0 0 0 0 0 0 0 0
0 0 0 0 0 0 0 0 0 0 0 0 0 0 0 0 0 0 0 0 0 0 1 0 0 0 0 0 0 0 0 0 0 0 0 0 0 0 0 0 0 0 0
0 0 0 0 0 0 0 0 0 0 2 1 0 0 0 0 0 0 0 0 0 0 0 0 0 0 0 0 0 0 0 0 0 0 0 0 0 0 0 0 0 0 0
CIN
-7 -12 -39 -62 -93 -141 -118 -76 -163 -78 0 0 0 0 0 -8 -162 0 0 -64 -62 -57 -91 -117 0 0 0 0 0 0 0 0 0 0 0 0 0 0 0 0 0 0 0
-5 -6 -14 -57 -75 -69 -51 -76 -87 0 0 0 0 0 0 0 0 0 0 0 -4 -3 -4 -2 0 0 0 0 0 0 0 0 0 -1 0 0 0 0 0 0 0 0 0
-6 -14 -16 -16 -38 -45 -46 -66 -1 0 0 0 0 0 0 0 0 0 0 0 0 0 0 0 -2 0 0 0 0 0 0 0 0 0 0 0 0 -1 -1 -1 0 0 0
-5 -16 -15 -24 -16 -84 -97 0 0 0 0 0 0 0 0 0 -3 0 0 0 0 0 0 0 0 0 -1 0 -1 -1 0 0 0 0 0 0 0 0 -1 -2 -1 -1 0
-8 -12 -21 -30 -119 0 0 0 0 0 0 0 0 0 0 0 -18 -15 -12 0 0 0 0 0 0 0 0 0 0 -1 0 0 0 0 0 0 0 0 0 0 0 0 0
-9 -10 -29 -85 -46 0 0 0 0 0 0 0 0 0 0 0 0 -14 -12 -4 0 0 0 0 0 0 0 0 -1 -1 0 0 0 0 0 0 0 0 0 0 0 0 0
-26 -32 -134 -231 0 0 0 0 0 0 0 0 0 0 -4 -2 -10 -11 -5 -11 -31 0 0 0 0 0 0 0 0 0 0 -1 0 -1 -1 0 0 0 0 0 0 0 0
-119 -190 -139 0 0 0 0 0 0 0 0 0 0 0 -2 -6 -15 -24 -11 -4 0 0 0 0 0 0 0 0 0 0 0 0 0 0 0 0 0 0 0 0 0 0 0
0 0 0 0 0 0 0 0 0 0 0 0 0 0 -1 0 0 0 0 0 0 0 0 0 0 0 0 0 0 0 0 0 0 0 0 0 0 -1 -1 0 0 0 0
0 0 0 0 0 0 0 0 0 -3 -18 -5 0 0 0 0 0 0 0 0 0 0 0 0 0 0 0 0 0 0 0 0 0 0 0 0 0 -1 -1 0 -1 -1 0
0 0 0 0 0 0 0 0 0 0 0 0 0 0 -2 0 0 0 0 0 0 0 0 0 0 0 0 0 0 0 0 0 0 0 0 0 0 0 0 0 0 0 0
0 0 0 0 0 0 0 0 0 0 0 0 0 0 0 0 0 0 0 0 0 0 0 0 0 0 0 0 0 0 0 0 0 0 0 0 0 0 0 -1 0 -1 -1
0 0 0 0 0 0 0 0 0 0 0 0 0 0 0 0 0 0 -14 -7 0 0 0 0 0 0 0 0 0 0 0 0 0 0 0 0 0 -1 0 -1 0 -1 0
0 0 0 0 0 0 0 0 0 0 0 0 0 0 0 0 0 0 0 -5 -3 -1 0 0 0 -10 0 0 0 0 0 0 0 0 0 0 -1 -1 -1 0 0 0 0
0 0 0 0 0 0 0 0 0 0 0 0 0 0 0 0 0 0 0 0 -7 -1 0 0 0 0 0 0 0 0 0 0 0 0 0 0 0 -1 0 0 0 0 0
0 0 0 0 0 0 0 0 0 0 0 0 0 0 0 0 0 0 0 0 0 -1 0 -2 0 0 0 0 0 0 0 0 0 0 0 0 -1 -1 0 -1 0 0 0
0 0 0 0 0 0 0 0 0 0 0 0 0 0 0 0 0 0 0 0 0 0 0 0 0 0 0 0 0 0 0 0 0 0 0 0 0 0 -1 0 0 -1 0
0 0 0 0 0 0 0 0 0 0 0 0 0 0 0 0 0 0 0 0 0 0 0 0 0 0 0 0 0 0 0 0 0 0 0 0 0 0 0 0 0 0 0
0 0 0 0 0 0 0 0 0 0 0 0 0 0 0 0 0 0 0 0 0 0 0 0 0 0 0 0 0 0 0 0 0 0 0 0 0 0 0 0 0 0 -1
0 0 0 0 0 0 0 0 0 0 0 0 0 0 0 0 0 0 0 0 0 0 0 0 -1 0 0 0 0 0 0 0 0 0 0 0 0 0 0 0 0 0 0
0 0 0 0 0 0 0 0 0 0 0 0 0 0 0 0 0 0 0 0 0 0 0 0 0 0 0 0 0 0 0 0 0 0 0 0 0 0 0 -1 -1 0 0
0 0 0 0 0 0 0 0 0 0 0 0 0 0 0 0 0 0 0 0 0 0 0 0 0 0 0 0 0 0 0 0 0 0 0 -1 -5 0 0 0 0 0 0
0 0 0 0 0 0 0 0 0 0 0 0 0 0 0 0 0 0 0 0 0 0 0 0 0 0 0 0 0 0 0 0 0 0 0 -2 0 0 0 0 0 0 0
0 0 0 0 0 0 0 0 0 0 0 0 0 0 0 0 0 0 0 0 0 0 0 0 0 0 0 0 0 0 0 0 0 0 0 0 -1 0 0 0 0 0 0
0 0 0 0 0 0 0 0 0 0 0 0 0 0 0 0 0 0 0 0 0 0 0 0 0 0 0 0 0 0 0 0 0 0 0 0 0 0 0 0 0 0 0
0 0 0 0 0 0 0 0 0 0 0 0 0 0 0 0 0 0 0 0 0 0 0 0 0 0 0 0 0 0 0 0 0 0 0 0 0 0 0 0 -1 0 0
Wind_Speed
4 3 3 2 2 3 3 4 4 7 12 13 13 12 12 13 11 12 13 10 7 8 9 10 11 11 12 13 13 15 16 17 18 18 19 19 20 20 20 20 20 20 20
6 7 5 5 4 3 3 5 8 10 10 10 10 11 10 11 9 10 10 10 9 8 9 10 12 13 13 14 15 15 16 17 18 19 19 19 20 21 21 21 22 21 20
8 7 8 6 5 6 6 7 8 10 10 9 9 9 9 9 7 8 7 8 9 10 10 11 12 13 14 15 16 16 17 18 18 19 20 20 20 20 20 21 22 22 22
11 10 10 10 10 8 9 10 10 10 10 10 9 9 9 9 8 6 6 7 8 10 12 13 13 14 14 15 16 17 18 18 18 18 20 20 21 21 21 21 21 24 25
12 11 12 11 10 11 12 13 12 11 10 10 8 10 10 10 8 8 7 8 8 9 11 13 14 15 15 15 15 17 18 19 19 19 19 20 21 20 20 21 22 22 23
13 12 13 12 11 12 14 13 13 12 11 11 11 9 10 10 12 9 9 10 8 9 11 10 13 15 15 16 16 17 18 19 19 21 21 20 20 21 21 22 22 22 22
14 14 14 12 12 14 14 13 15 14 13 12 10 13 13 12 12 11 10 9 9 11 9 11 11 12 14 17 17 18 19 20 20 20 21 21 21 21 21 21 22 23 24
16 16 15 14 14 17 16 14 14 11 19 12 14 13 15 17 16 14 10 11 12 13 13 13 11 11 13 16 18 19 19 19 20 21 21 22 22 22 21 21 23 23 24
18 17 17 18 18 18 18 17 15 17 16 18 15 17 18 23 16 14 14 13 12 14 13 15 17 14 13 15 17 19 20 19 20 21 21 22 22 22 22 23 23 24 25
18 17 17 16 17 18 17 17 19 23 22 17 16 16 16 18 22 21 16 16 15 15 13 12 13 13 14 17 18 17 19 20 19 20 21 20 21 22 22 22 23 24 25
15 14 14 14 15 16 18 22 18 21 19 18 19 15 18 17 19 18 22 19 15 17 17 14 15 17 16 15 16 17 18 18 19 19 20 20 21 21 21 22 23 24 25
13 12 12 14 16 15 17 17 16 18 16 14 16 19 17 16 18 19 19 18 19 19 20 20 21 22 18 17 16 16 18 18 18 19 20 20 21 21 20 21 23 24 25
13 12 10 10 10 14 13 14 18 14 15 15 14 16 18 16 16 17 16 17 20 20 24 25 23 19 17 16 15 14 16 18 18 19 20 20 20 21 20 21 23 24 25
10 8 8 13 14 14 14 14 15 13 12 12 11 13 16 17 18 19 20 23 26 26 24 16 10 13 12 11 11 11 14 15 16 18 19 20 20 20 20 21 22 23 23
10 10 11 12 14 12 9 10 9 9 6 6 6 7 9 11 13 14 13 14 20 27 24 22 14 9 8 8 9 11 13 14 16 18 19 19 20 21 20 20 22 23 24
9 10 10 10 9 8 9 8 9 9 8 8 8 8 9 10 10 10 13 14 16 19 17 16 15 11 11 13 12 13 12 14 16 17 18 19 19 19 18 19 21 23 23
7 6 6 6 5 6 7 8 8 8 9 10 9 9 8 8 10 12 13 15 14 19 22 26 19 15 14 14 14 12 13 14 15 16 17 18 19 19 18 19 21 23 23
4 3 4 5 5 5 6 7 8 8 9 9 9 9 8 10 10 12 17 19 19 21 24 23 20 17 15 15 14 14 15 13 12 13 15 17 18 16 17 19 21 22 23
5 4 4 3 4 6 7 8 9 9 9 9 9 9 9 9 10 10 13 14 17 19 20 22 21 19 17 16 17 18 14 10 12 13 15 15 15 14 16 19 20 22 23
4 6 4 3 4 6 6 7 8 8 8 9 9 9 9 10 11 10 10 10 11 15 20 21 22 22 20 16 15 15 15 12 13 12 13 14 14 13 15 18 20 21 22
5 5 5 5 4 4 5 6 7 8 9 10 10 12 14 16 16 15 14 13 15 16 17 18 20 20 19 17 17 18 15 14 12 12 13 13 13 13 15 17 19 22 22
9 5 5 3 3 4 5 6 7 7 7 8 9 12 13 13 14 14 16 16 17 16 15 15 15 15 17 15 14 15 16 13 17 12 13 14 12 13 14 17 18 20 21
7 7 5 2 1 4 3 5 6 6 8 9 8 11 14 15 15 14 15 15 16 17 17 15 13 14 14 13 13 9 14 11 15 8 8 12 11 14 14 16 16 18 19
8 7 6 3 1 2 2 3 5 8 9 11 10 10 12 13 14 14 14 15 17 17 17 15 12 13 12 13 13 16 13 11 9 10 10 14 11 13 13 14 16 18 19
9 8 6 4 2 1 2 1 4 7 8 10 12 11 11 12 12 13 13 14 15 15 15 14 13 11 10 12 15 12 7 8 11 13 13 13 11 13 14 13 15 17 17
8 6 5 4 2 2 3 2 2 6 8 11 11 12 11 12 11 13 12 12 13 12 12 12 13 11 7 6 11 12 14 10 10 13 10 10 8 12 15 13 13 14 15
Wind_Direction
230 254 264 285 314 307 293 321 320 325 323 319 317 322 319 332 348 345 339 342 356 4 6 2 1 355 353 352 351 348 347 346 347 346 343 343 341 339 339 338 337 335 333
246 264 271 276 289 282 297 314 319 319 321 320 317 316 314 321 349 352 348 347 353 355 356 356 353 351 348 346 345 345 346 346 347 347 342 341 336 336 334 330 330 332 333
264 248 268 267 273 285 303 308 315 318 318 319 315 312 312 320 338 345 350 345 346 346 346 350 346 345 345 345 344 344 346 345 349 345 342 342 341 340 338 335 329 327 325
273 261 266 270 284 292 300 303 305 305 308 307 309 307 307 312 317 328 330 331 333 333 336 336 337 339 340 339 341 342 344 344 350 349 344 343 340 336 334 332 329 321 319
267 266 270 271 276 281 292 292 289 289 292 294 297 300 305 305 308 310 312 309 313 321 326 328 330 331 332 335 339 341 342 343 346 347 345 344 341 337 336 334 328 325 323
268 273 279 270 270 280 285 280 280 280 278 279 287 290 294 297 293 297 292 304 312 320 319 322 323 326 330 330 333 338 339 341 342 340 340 343 340 336 335 333 330 329 328
275 277 277 269 271 281 279 280 283 278 281 276 280 287 296 301 299 296 294 296 303 310 307 314 317 322 327 330 331 332 334 336 338 339 339 341 337 336 334 332 329 328 327
286 283 277 276 273 282 285 278 275 273 284 267 274 283 286 292 299 301 293 290 297 307 308 312 309 318 325 325 327 329 332 333 335 336 337 337 334 332 332 330 329 328 329
291 290 285 287 285 286 288 289 292 278 275 267 270 284 281 283 277 296 296 298 298 297 298 303 303 310 320 326 328 328 329 333 335 335 337 337 332 331 330 329 328 327 327
290 293 292 292 294 296 295 292 300 296 288 254 268 281 298 295 281 280 287 291 296 293 298 303 312 310 312 319 327 332 331 329 334 333 336 336 331 327 327 331 334 333 331
294 296 298 300 301 306 308 309 300 299 301 288 286 282 292 295 301 286 282 282 290 298 296 298 300 308 310 313 321 325 327 332 330 335 334 336 333 332 332 334 333 332 333
293 296 301 305 307 303 302 306 303 313 309 299 303 300 301 296 303 300 293 287 280 286 289 292 296 300 301 304 311 316 322 328 326 330 332 332 333 332 333 334 332 331 330
284 290 300 302 307 317 303 313 301 309 313 307 317 310 311 310 313 314 316 306 296 295 293 290 290 295 298 300 307 318 318 320 324 329 329 330 329 331 335 333 332 333 334
269 276 290 320 307 307 320 316 314 318 317 314 327 318 312 309 311 307 305 301 300 299 302 305 294 298 301 302 310 319 320 327 327 326 329 331 330 331 332 334 335 336 336
283 292 299 307 328 326 340 340 342 0 19 7 358 354 332 326 321 316 311 303 301 299 290 292 302 300 307 297 299 308 312 317 321 321 326 328 329 330 333 338 339 339 335
294 300 302 317 323 333 354 359 359 10 23 27 17 0 340 332 329 324 316 310 307 313 305 299 295 289 289 296 294 300 307 312 316 321 324 326 330 331 335 339 338 335 335
295 299 310 330 344 352 357 18 19 23 14 15 15 9 4 4 350 340 331 326 313 306 305 303 299 289 290 295 300 300 303 308 315 318 320 326 328 331 336 337 336 334 335
302 299 311 331 352 11 22 18 23 23 19 23 34 34 21 12 358 346 324 318 312 308 298 296 296 292 292 299 299 303 302 306 321 327 327 327 329 335 337 337 337 336 336
284 294 303 340 4 9 12 19 18 28 32 34 44 44 38 31 7 355 342 336 323 313 308 299 296 293 295 297 297 301 298 308 318 324 329 331 336 340 340 340 342 340 340
271 283 292 330 353 8 16 19 19 34 43 40 41 38 33 14 359 355 349 346 334 316 312 305 298 291 291 295 299 292 294 300 307 321 324 326 335 341 345 346 346 345 346
255 263 281 307 345 4 22 28 42 51 50 41 29 16 0 354 354 354 348 347 335 328 322 315 301 296 293 293 288 289 291 298 303 311 319 324 331 340 344 347 347 350 348
253 248 260 288 321 348 23 49 52 38 36 27 17 2 4 3 360 357 355 349 342 330 327 323 318 299 298 296 295 293 290 287 294 307 318 322 334 339 342 345 349 353 356
242 245 246 240 317 347 51 70 59 35 11 358 7 1 355 356 355 354 353 350 348 343 340 337 334 321 313 305 300 288 293 283 292 307 325 327 335 334 346 350 354 357 359
242 245 244 227 279 359 86 87 9 354 352 346 347 349 350 350 353 353 354 348 345 344 343 347 342 335 324 313 305 295 296 298 315 318 321 320 337 339 352 354 354 353 354
245 242 227 208 190 231 146 124 347 341 342 339 339 341 343 341 340 340 348 347 348 349 355 355 355 357 332 309 295 295 305 306 309 311 320 330 338 340 344 351 352 353 354
228 223 216 216 224 225 187 229 315 330 326 329 332 334 333 331 331 330 335 340 341 348 356 1 351 1 4 347 307 302 303 313 321 324 330 336 351 346 343 347 352 358 355